Flag for Pakistan Weather past 2 weeks in Haripur, Pakistan

Now
75 °F

Thunderstorms. Partly cloudy.


Feels Like: 78 °F
Forecast: 62 / 98 °F
Wind: 35 mph from Northeast

Location: Islamabad Airport

Current Time: May 25, 2015 at 9:51:41 PM

Latest Report: May 25, 2015 at 9:00 PM


Visibility: 3 mi

Pressure: 29.68 "Hg

Humidity: 57%

Dew point: 59 °F

Location of HaripurLocation

Historic Weather in Haripur — Graph

°F

Haripur temperature yesterday

Maximum temperature yesterday: 95 °F (at 3:00 PM)
Minimum temperature yesterday: 77 °F (at 7:00 AM)
Average temperature yesterday: 86 °F

Past Weeks' High & Low Weather Summary

 TemperatureHumidityPressure
High100 °F (May 22, 3:00 PM)94% (May 17, 12:00 PM)29.95 "Hg (May 17, 12:00 PM)
Low66 °F (May 13, 12:00 AM)18% (May 22, 3:00 PM)29.50 "Hg (May 25, 5:00 PM)
Average82 °F52%29.74 "Hg
* Reported May 10 9:00 PM — May 25 8:00 PM, Haripur, Weather by CustomWeather, © 2015

Note: Actual official high and low records may vary slightly from our data, if they occured in-between our weather recording intervals... More about our weather records

Advertising

Haripur weather history for previous 24 hours

 ConditionsComfort  
Time TempWeatherWind HumidityBarometerVisibility
8:00 PM
Mon, May 25
81 °FThunderstorms. Partly cloudy.23 mph42%29.62 "Hg3 mi
7:00 PM82 °FThunderstorms. Broken clouds.23 mph45%29.59 "Hg3 mi
6:00 PMN/ABroken clouds.14 mphN/A29.56 "Hg3 mi
5:00 PM93 °FThunderstorms. Broken clouds.9 mph32%29.50 "Hg4 mi
4:00 PM97 °FScattered clouds.14 mph19%29.53 "HgN/A
3:00 PM99 °FScattered clouds.14 mph21%29.56 "HgN/A
2:00 PM95 °FPassing clouds.9 mph22%29.59 "HgN/A
1:00 PM93 °FScattered clouds.9 mph24%29.62 "HgN/A
12:00 PM93 °FScattered clouds.12 mph24%29.62 "HgN/A
11:00 AM91 °FPassing clouds.9 mph28%29.65 "HgN/A
10:00 AM88 °FScattered clouds.12 mph29%29.65 "HgN/A
9:00 AM82 °FScattered clouds.14 mph40%29.65 "HgN/A
8:00 AM81 °FScattered clouds.9 mph45%29.68 "Hg4 mi
7:00 AM79 °FScattered clouds.12 mph45%29.65 "Hg4 mi
6:00 AM77 °FScattered clouds.9 mph51%29.59 "Hg4 mi
5:00 AM73 °FPassing clouds.12 mph61%29.62 "Hg4 mi
4:00 AM77 °FPassing clouds.7 mph57%29.62 "Hg4 mi
3:00 AM77 °FPassing clouds.7 mph61%29.62 "Hg4 mi
2:00 AM77 °FPassing clouds.7 mph61%29.62 "Hg4 mi
1:00 AM77 °FPassing clouds.9 mph57%29.65 "Hg4 mi
11:00 PM
Sun, May 24
81 °FPassing clouds.12 mph51%29.65 "Hg4 mi
10:00 PM81 °FPassing clouds.9 mph51%29.65 "Hg4 mi
9:00 PM81 °FPassing clouds.12 mph51%29.65 "HgN/A
Weather by CustomWeather, © 2015

See weather overviewHow to use our weather pages